DMSP 5D-2 F11 DEB, 28326

Orbit data source: Space-Track

DMSP 5D-2 F11 DEB, 28326 is space debris in SSO originally from a launch on Thu, 28 Nov 1991 UTC launched from the Air Force Western Test Range (AFWTR). Debris objects in space refer to the collection of defunct objects orbiting the Earth. Examples of debris include non-operational satellites, rocket bodies, and fragments generated from explosions, collisions, or faulty payload assembly.

Loading next visibility...
Identifier
28326, 1991-082AP
Orbit
SSO
Country
Flag of USUS
Related business
Manufacturer
Unknown
Mission
Spacecraft
Bus & Motor
Unknown
Mass
Unknown
Launch date (UTC)
1991-11-28 (34 years ago)
Launch vehicle
Unknown
Launch site
Air Force Western Test Range (AFWTR)
Object type
Payload
Rocket body
Debris
Shape & HBR
Unknown shape, 0.1 m
Radar Cross Section
Small (<0.1 m²)

Expand to show TLE details & history
Last TLE update: 4 days ago

TLE from 4 days ago
0 DMSP 5D-2 F11 DEB
1 28326U 91082AP  26117.54444431  .00008972  00000-0  24678-2 0  9992
2 28326  98.8100 222.1385 0047335 156.4419 203.8954 14.46513110135707
Epoch: 2026-04-27T13:03Z
TLE epoch observation values (Epoch: 2026-04-27T13:03:59.988Z)
Latitude
-0.00003°
Longitude
170.60597°
Altitude
770.833 km
Speed
7.453 km/s
True Right ascension
14h 48m 33s
True Declination
0° 00' 00"
Sunlit
Object was in full shadow at epoch
Visualization orbit readout
Latitude
Unknown
Longitude
Unknown
Altitude
Unknown
Speed
Unknown
Apparent Right ascension
Unknown
Apparent Declination
Unknown
Sunlit
N/A
Visualization observer readout
Local Sidereal Time
01:14:54
Azimuth
Unknown
Elevation
Unknown
Doppler factor
Unknown
Orbital elements
Apogee altitude
767.854 km
Perigee altitude
700.522 km
Semi-major axis
7,112.325 km
Eccentricity
0.00473
Inclination
98.81°
RAAN
222.1385°
Arg. of periapsis
156.4419°
True anomaly
203.67687°
Mean anomaly
203.8954°
Eccentric anomaly
203.78602°
Mean motion
3.61848 °/min
Orbital period
99.49 mins
BSTAR
0.0024678
Loading maneuver chart data...
Computing Atmospheric mass density...
Loading historical data...
Loading historical data...
Loading historical data...
Loading historical data...
Loading historical data...
Loading historical data...
Loading historical data...

Documentation

Showing up to 5 results
|